This is the latest recevied weather packets stored in our database for station/object KB3GVC-13. If no packets are shown the sender has not sent any weather packets the latest 10 day(s).
| Time | Temp. | Humidity | Pressure | Rain* | Wind** | Luminosity | Snow |
|---|---|---|---|---|---|---|---|
| 1777737857 | 15° C | 47% | 1014.7 hPa | 0 mm | - | - | - |
| 1777737556 | 14.44° C | 49% | 1014.8 hPa | 0 mm | - | - | - |
| 1777737254 | 14.44° C | 48% | 1014.7 hPa | 0 mm | - | - | - |
| 1777736949 | 14.44° C | 47% | 1014.7 hPa | 0 mm | - | - | - |
| 1777736043 | 13.33° C | 49% | 1015 hPa | 0 mm | - | - | - |
| 1777735740 | 13.33° C | 54% | 1014.6 hPa | 0 mm | - | - | - |
| 1777735438 | 12.78° C | 53% | 1014.6 hPa | 0 mm | - | - | - |
| 1777735135 | 12.78° C | 57% | 1014.7 hPa | 0 mm | - | - | - |
| 1777734831 | 12.78° C | 56% | 1014.6 hPa | 0 mm | - | - | - |
| 1777734529 | 13.33° C | 58% | 1014.7 hPa | 0 mm | - | - | - |
| 1777734225 | 12.78° C | 60% | 1014.8 hPa | 0 mm | - | - | - |
| 1777733922 | 12.78° C | 63% | 1014.7 hPa | 0 mm | - | - | - |
| 1777733618 | 12.22° C | 62% | 1014.6 hPa | 0 mm | - | - | - |
| 1777733315 | 12.22° C | 63% | 1014.4 hPa | 0 mm | - | - | - |
| 1777733012 | 12.78° C | 62% | 1014.5 hPa | 0 mm | - | - | - |
| 1777732708 | 12.78° C | 64% | 1014.6 hPa | 0 mm | - | - | - |
| 1777732405 | 12.22° C | 63% | 1014.4 hPa | 0 mm | - | - | - |
| 1777732103 | 12.22° C | 66% | 1014.4 hPa | 0 mm | - | - | - |
| 1777731800 | 11.67° C | 67% | 1014.6 hPa | 0 mm | - | - | - |
| 1777731496 | 11.67° C | 67% | 1014.7 hPa | 0 mm | - | - | - |
| 1777731195 | 11.11° C | 69% | 1014.6 hPa | 0 mm | - | - | - |
| 1777730892 | 11.11° C | 71% | 1014.7 hPa | 0 mm | - | - | - |
| 1777730590 | 11.67° C | 71% | 1014.8 hPa | 0 mm | - | - | - |
| 1777730286 | 11.67° C | 71% | 1014.5 hPa | 0 mm | - | - | - |
| 1777729983 | 11.67° C | 71% | 1014.5 hPa | 0 mm | - | - | - |
* Rain latest hour (hover to see other rain measurements)
** Current wind speed in m/s (hover to see current wind gust speed)